Location: Csohesd
(46.2500°N, 22.6167°E)
Time: 04:44:38
(UTC+00:00)

CZ-2C R/B - Pass Details

Date: 21 October 2021
Orbit: 388 x 573 km, 35.0° (Epoch: 30 November)

Event Time Altitude Azimuth Distance (km) Brightness Sun altitude
Rises 16:52:32 0° 243° (WSW) 2,465 5.9 -14.5°
Reaches altitude 10° 16:55:44 10° 214° (SSW) 1,543 4.1 -15.1°
Maximum altitude 16:57:20 13° 186° (S) 1,366 3.4 -15.3°
Drops below altitude 10° 16:58:54 10° 159° (SSE) 1,499 3.3 -15.6°
Enters shadow 16:58:58 10° 157° (SSE) 1,512 3.3 -15.6°
